Time,TemperatureF,DewpointF,PressureIn,WindDirection,WindDirectionDegrees,WindSpeedMPH,WindSpeedGustMPH,Humidity,HourlyPrecipIn,Conditions,Clouds,dailyrainin,SoftwareType,DateUTC
2013-07-14 00:32:00,68.0,50.0,29.78,North,0,0.0,1.0,52,0.00,,,-99.99,,2013-07-14 07:32:00,
2013-07-14 00:43:00,68.0,50.0,29.78,North,0,0.0,1.0,52,0.00,,,-99.99,,2013-07-14 07:43:00,
2013-07-14 00:53:00,68.0,50.0,29.78,North,0,0.0,1.0,52,0.00,,,-99.99,,2013-07-14 07:53:00,
2013-07-14 01:32:00,69.0,50.0,29.77,North,0,0.0,1.0,50,0.00,,,-99.99,,2013-07-14 08:32:00,
2013-07-14 01:42:00,69.0,50.0,29.77,North,0,0.0,1.0,50,0.00,,,-99.99,,2013-07-14 08:42:00,
2013-07-14 01:53:00,69.0,50.0,29.77,North,0,0.0,1.0,50,0.00,,,-99.99,,2013-07-14 08:53:00,
2013-07-14 02:32:00,70.0,50.0,29.76,North,0,0.0,1.0,50,0.00,,,-99.99,,2013-07-14 09:32:00,
2013-07-14 02:42:00,70.0,50.0,29.76,North,0,0.0,1.0,50,0.00,,,-99.99,,2013-07-14 09:42:00,
2013-07-14 02:52:00,70.0,50.0,29.76,North,0,0.0,1.0,50,0.00,,,-99.99,,2013-07-14 09:52:00,
2013-07-14 03:32:00,68.0,50.0,29.75,East,80,1.0,1.0,52,0.00,,,-99.99,,2013-07-14 10:32:00,
2013-07-14 03:42:00,68.0,50.0,29.75,East,80,1.0,1.0,52,0.00,,,-99.99,,2013-07-14 10:42:00,
2013-07-14 03:53:00,68.0,50.0,29.75,East,80,1.0,1.0,52,0.00,,,-99.99,,2013-07-14 10:53:00,
2013-07-14 04:32:00,68.0,50.0,29.75,East,80,1.0,1.0,53,0.00,,,-99.99,,2013-07-14 11:32:00,
2013-07-14 04:43:00,68.0,50.0,29.75,East,80,1.0,1.0,53,0.00,,,-99.99,,2013-07-14 11:43:00,
2013-07-14 04:53:00,68.0,50.0,29.75,East,80,1.0,1.0,53,0.00,,,-99.99,,2013-07-14 11:53:00,
2013-07-14 05:32:00,69.0,51.0,29.75,East,80,1.0,2.0,52,0.00,,,-99.99,,2013-07-14 12:32:00,
2013-07-14 05:43:00,69.0,51.0,29.75,East,80,1.0,2.0,52,0.00,,,-99.99,,2013-07-14 12:43:00,
2013-07-14 05:52:00,69.0,51.0,29.75,East,80,1.0,2.0,52,0.00,,,-99.99,,2013-07-14 12:52:00,
2013-07-14 06:32:00,67.0,49.0,29.76,East,80,2.0,3.0,53,0.00,,,-99.99,,2013-07-14 13:32:00,
2013-07-14 06:42:00,67.0,49.0,29.76,East,80,2.0,3.0,53,0.00,,,-99.99,,2013-07-14 13:42:00,
2013-07-14 06:53:00,67.0,49.0,29.76,East,80,2.0,3.0,53,0.00,,,-99.99,,2013-07-14 13:53:00,
2013-07-14 07:33:00,68.0,50.0,29.77,East,80,1.0,2.0,53,0.00,,,-99.99,,2013-07-14 14:33:00,
2013-07-14 07:43:00,68.0,50.0,29.77,East,80,1.0,2.0,53,0.00,,,-99.99,,2013-07-14 14:43:00,
2013-07-14 07:53:00,68.0,50.0,29.77,East,80,1.0,2.0,53,0.00,,,-99.99,,2013-07-14 14:53:00,
2013-07-14 08:32:00,75.0,52.0,29.77,North,-999,0.0,0.0,44,0.00,,,-99.99,,2013-07-14 15:32:00,
2013-07-14 08:42:00,75.0,52.0,29.77,North,-999,0.0,0.0,44,0.00,,,-99.99,,2013-07-14 15:42:00,
2013-07-14 08:53:00,75.0,52.0,29.77,North,-999,0.0,0.0,44,0.00,,,-99.99,,2013-07-14 15:53:00,
2013-07-14 09:32:00,81.0,50.0,29.77,North,0,0.0,2.0,34,0.00,,,-99.99,,2013-07-14 16:32:00,
2013-07-14 09:43:00,81.0,50.0,29.77,North,0,0.0,2.0,34,0.00,,,-99.99,,2013-07-14 16:43:00,
2013-07-14 09:53:00,81.0,50.0,29.77,North,0,0.0,2.0,34,0.00,,,-99.99,,2013-07-14 16:53:00,
2013-07-14 10:32:00,85.0,50.0,29.77,WSW,250,3.0,6.0,30,0.00,,,-99.99,,2013-07-14 17:32:00,
2013-07-14 10:43:00,85.0,50.0,29.77,WSW,250,3.0,6.0,30,0.00,,,-99.99,,2013-07-14 17:43:00,
2013-07-14 10:53:00,85.0,50.0,29.77,WSW,250,3.0,6.0,30,0.00,,,-99.99,,2013-07-14 17:53:00,
2013-07-14 11:32:00,88.0,51.0,29.77,WSW,250,1.0,6.0,28,0.00,,,-99.99,,2013-07-14 18:32:00,
2013-07-14 11:42:00,88.0,51.0,29.77,WSW,250,1.0,6.0,28,0.00,,,-99.99,,2013-07-14 18:42:00,
2013-07-14 11:52:00,88.0,51.0,29.77,WSW,250,1.0,6.0,28,0.00,,,-99.99,,2013-07-14 18:52:00,
2013-07-14 12:32:00,89.0,52.0,29.77,West,280,4.0,8.0,28,0.00,,,-99.99,,2013-07-14 19:32:00,
2013-07-14 12:43:00,89.0,52.0,29.77,West,280,4.0,8.0,28,0.00,,,-99.99,,2013-07-14 19:43:00,
2013-07-14 12:52:00,89.0,52.0,29.77,West,280,4.0,8.0,28,0.00,,,-99.99,,2013-07-14 19:52:00,
2013-07-14 13:32:00,89.0,51.0,29.76,WNW,300,5.0,10.0,27,0.00,,,-99.99,,2013-07-14 20:32:00,
2013-07-14 13:43:00,89.0,51.0,29.76,WNW,300,5.0,10.0,27,0.00,,,-99.99,,2013-07-14 20:43:00,
2013-07-14 13:53:00,89.0,51.0,29.76,WNW,300,5.0,10.0,27,0.00,,,-99.99,,2013-07-14 20:53:00,
2013-07-14 14:32:00,91.0,51.0,29.75,North,0,0.0,9.0,26,0.00,,,-99.99,,2013-07-14 21:32:00,
2013-07-14 14:42:00,91.0,51.0,29.75,North,0,0.0,9.0,26,0.00,,,-99.99,,2013-07-14 21:42:00,
2013-07-14 14:52:00,91.0,51.0,29.75,North,0,0.0,9.0,26,0.00,,,-99.99,,2013-07-14 21:52:00,
2013-07-14 15:32:00,91.0,54.0,29.73,WNW,290,8.0,14.0,29,0.00,,,-99.99,,2013-07-14 22:32:00,
2013-07-14 15:42:00,91.0,54.0,29.73,WNW,290,8.0,14.0,29,0.00,,,-99.99,,2013-07-14 22:42:00,
2013-07-14 15:53:00,91.0,54.0,29.73,WNW,290,8.0,14.0,29,0.00,,,-99.99,,2013-07-14 22:53:00,
2013-07-14 16:32:00,88.0,54.0,29.71,WNW,290,3.0,10.0,32,0.00,,,-99.99,,2013-07-14 23:32:00,
2013-07-14 16:42:00,88.0,54.0,29.71,WNW,290,3.0,10.0,32,0.00,,,-99.99,,2013-07-14 23:42:00,
2013-07-14 16:53:00,88.0,54.0,29.71,WNW,290,3.0,10.0,32,0.00,,,-99.99,,2013-07-14 23:53:00,
2013-07-14 17:32:00,87.0,56.0,29.71,WNW,290,3.0,5.0,35,0.00,,,-99.99,,2013-07-15 00:32:00,
2013-07-14 17:43:00,87.0,56.0,29.71,WNW,290,3.0,5.0,35,0.00,,,-99.99,,2013-07-15 00:43:00,
2013-07-14 17:53:00,87.0,56.0,29.71,WNW,290,3.0,5.0,35,0.00,,,-99.99,,2013-07-15 00:53:00,
2013-07-14 18:32:00,84.0,56.0,29.70,WNW,290,1.0,3.0,39,0.00,,,-99.99,,2013-07-15 01:32:00,
2013-07-14 18:43:00,84.0,56.0,29.70,WNW,290,1.0,3.0,39,0.00,,,-99.99,,2013-07-15 01:43:00,
2013-07-14 18:53:00,84.0,56.0,29.70,WNW,290,1.0,3.0,39,0.00,,,-99.99,,2013-07-15 01:53:00,
2013-07-14 19:32:00,82.0,56.0,29.70,West,280,1.0,4.0,41,0.00,,,-99.99,,2013-07-15 02:32:00,
2013-07-14 19:42:00,82.0,56.0,29.70,West,280,1.0,4.0,41,0.00,,,-99.99,,2013-07-15 02:42:00,
2013-07-14 19:53:00,82.0,56.0,29.70,West,280,1.0,4.0,41,0.00,,,-99.99,,2013-07-15 02:53:00,
2013-07-14 20:32:00,77.0,56.0,29.70,North,0,0.0,4.0,48,0.00,,,-99.99,,2013-07-15 03:32:00,
2013-07-14 20:42:00,77.0,56.0,29.70,North,0,0.0,4.0,48,0.00,,,-99.99,,2013-07-15 03:42:00,
2013-07-14 20:53:00,77.0,56.0,29.70,North,0,0.0,4.0,48,0.00,,,-99.99,,2013-07-15 03:53:00,
2013-07-14 21:32:00,73.0,55.0,29.72,North,-999,0.0,0.0,54,0.00,,,-99.99,,2013-07-15 04:32:00,
2013-07-14 21:42:00,73.0,55.0,29.72,North,-999,0.0,0.0,54,0.00,,,-99.99,,2013-07-15 04:42:00,
2013-07-14 21:53:00,73.0,55.0,29.72,North,-999,0.0,0.0,54,0.00,,,-99.99,,2013-07-15 04:53:00,
2013-07-14 22:32:00,69.0,53.0,29.72,WSW,250,3.0,4.0,56,0.00,,,-99.99,,2013-07-15 05:32:00,
2013-07-14 22:43:00,69.0,53.0,29.72,WSW,250,3.0,4.0,56,0.00,,,-99.99,,2013-07-15 05:43:00,
2013-07-14 22:53:00,69.0,53.0,29.72,WSW,250,3.0,4.0,56,0.00,,,-99.99,,2013-07-15 05:53:00,
2013-07-14 23:32:00,69.0,50.0,29.72,East,90,1.0,3.0,51,0.00,,,-99.99,,2013-07-15 06:32:00,
2013-07-14 23:42:00,69.0,50.0,29.72,East,90,1.0,3.0,51,0.00,,,-99.99,,2013-07-15 06:42:00,
2013-07-14 23:53:00,69.0,50.0,29.72,East,90,1.0,3.0,51,0.00,,,-99.99,,2013-07-15 06:53:00,